Location: Albany
(35.0000°S, 118.0000°E)
Time: 23:29:37
(UTC-05:00)

Amateur Radio Satellites - All Passes

Search period start: 04 December 2016 22:59
Search period end: 05 December 2016 22:59
Location: Albany, 35.0000°S, 118.0000°E

Satellite Date Start Highest point End Downlink Frequencies (MHz)
Time Altitude Azimuth
Cosmos 2499 04 Dec 23:10:55 23:17:47 41° 90° (E) 23:24:24 435.465 / 435.565
QB50P1 04 Dec 23:12:44 23:16:53 48° 254° (WSW) 23:20:59 145.935-145.965
CUBEBUG 1 04 Dec 23:13:24 23:16:31 19° 275° (W) 23:19:39 437.445
DUCHIFAT 1 04 Dec 23:17:15 23:21:24 50° 254° (WSW) 23:25:31 145.980
VELOX 1 04 Dec 23:19:43 23:23:19 24° 276° (W) 23:26:57 145.980
POPSAT HIP 1 04 Dec 23:34:29 23:38:09 28° 251° (WSW) 23:41:48 437.405
DX 1 04 Dec 23:37:46 23:41:30 27° 277° (W) 23:45:16 434.975-435.025
JAS-2 04 Dec 23:38:44 23:45:47 36° 246° (WSW) 23:52:32 435.910
ITUPSAT 1 04 Dec 23:39:50 23:40:38 10° 118° (ESE) 23:41:25 437.325
AUBIESAT-1 04 Dec 23:42:27 23:43:51 12° 116° (ESE) 23:45:13 437.475
PHONESAT 2.4 04 Dec 23:42:58 23:45:41 68° 25° (NNE) 23:48:26 2401.200-2431.200
UKube-1 04 Dec 23:47:46 23:51:31 28° 277° (W) 23:55:17 .
M-CUBED/EXP-1 PRIME 04 Dec 23:51:55 23:54:50 20° 113° (ESE) 23:57:37 437.505
Gurwin Techsat 1B 04 Dec 23:53:50 23:56:41 14° 88° (E) 23:59:30 435.225
TISAT 1 04 Dec 23:54:21 23:58:33 85° 103° (ESE) 00:02:47 437.305
AO-85 04 Dec 23:57:28 23:59:24 13° 74° (ENE) 00:01:24 145.980
SPROUT 05 Dec 00:06:41 00:07:37 11° 272° (W) 00:08:34 437.525
Oscar 19 05 Dec 00:07:48 00:12:43 41° 81° (E) 00:17:32 437.125/150
ISS 05 Dec 00:13:47 00:14:58 11° 306° (NW) 00:16:09 145.825
BUGSAT 1 05 Dec 00:20:48 00:24:10 24° 251° (WSW) 00:27:31 437.445
GONETS M04 05 Dec 00:27:30 00:36:13 65° 261° (W) 00:45:06
SWISSCUBE 05 Dec 00:42:09 00:46:51 58° 106° (ESE) 00:51:37 437.505
BEESAT 05 Dec 00:46:22 00:51:04 57° 107° (ESE) 00:55:48 436.000
O/OREOS (USA 219) 05 Dec 00:54:25 00:58:51 41° 114° (ESE) 01:03:13 437.305
Cosmos 2499 05 Dec 01:04:35 01:10:55 30° 255° (WSW) 01:17:03 435.465 / 435.565
ITUPSAT 1 05 Dec 01:12:57 01:17:44 76° 283° (WNW) 01:22:37 437.325
AUBIESAT-1 05 Dec 01:14:14 01:17:59 42° 284° (WNW) 01:21:31 437.475
PHONESAT 2.4 05 Dec 01:18:36 01:21:06 29° 190° (S) 01:23:36 2401.200-2431.200
M-CUBED/EXP-1 PRIME 05 Dec 01:25:54 01:29:11 24° 283° (WNW) 01:32:18 437.505
Gurwin Techsat 1B 05 Dec 01:31:39 01:36:57 59° 253° (WSW) 01:42:12 435.225
AO-85 05 Dec 01:35:06 01:39:14 49° 237° (WSW) 01:43:45 145.980
Oscar 19 05 Dec 01:47:55 01:51:40 21° 246° (WSW) 01:55:25 437.125/150
AO-7 05 Dec 01:57:39 02:05:04 35° 81° (E) 02:12:23 29.400- 29.500
MOZHAYETS 4 05 Dec 02:04:34 02:09:11 88° 103° (ESE) 02:13:54
CUBESAT XI-V 05 Dec 02:06:49 02:08:40 12° 115° (ESE) 02:10:31 437.345
ITAMSAT 1 05 Dec 02:11:55 02:17:13 74° 78° (ENE) 02:22:28 435.822/435.867
SWISSCUBE 05 Dec 02:23:03 02:24:57 12° 272° (W) 02:26:52 437.505
BEESAT 05 Dec 02:27:11 02:29:08 12° 272° (W) 02:31:07 436.000
O/OREOS (USA 219) 05 Dec 02:35:03 02:37:50 16° 279° (W) 02:40:36 437.305
KKS-1 05 Dec 02:44:40 02:49:08 78° 282° (WNW) 02:53:39 437.445
PHONESAT 2.4 05 Dec 02:54:21 02:56:47 26° 173° (S) 02:59:14 2401.200-2431.200
STARS 05 Dec 02:54:26 02:58:45 59° 106° (ESE) 03:03:07 437.465
BEESAT 3 05 Dec 03:31:44 03:35:13 31° 67° (ENE) 03:38:42 437.485
CUBESAT XI-V 05 Dec 03:40:44 03:45:26 63° 281° (W) 03:50:12 437.345
AO-7 05 Dec 03:50:01 03:57:53 47° 245° (WSW) 04:05:41 29.400- 29.500
HORYU 2 05 Dec 03:53:47 03:57:45 29° 83° (E) 04:01:42 437.375
ITAMSAT 1 05 Dec 03:53:51 03:55:59 12° 242° (WSW) 03:58:07 435.822/435.867
BEESAT 2 05 Dec 03:58:15 04:01:37 27° 68° (ENE) 04:05:00 435.950
Cubesat XI-IV 05 Dec 04:05:22 04:06:37 11° 89° (E) 04:07:51 437.490
NOAA 15 05 Dec 04:05:58 04:08:15 13° 88° (E) 04:10:31 137.62
YUBILEINY 05 Dec 04:09:39 04:16:26 24° 110° (ESE) 04:23:06 435.215
GOMX 1 05 Dec 04:12:53 04:16:09 21° 85° (E) 04:19:22 467.674
SO-50 05 Dec 04:26:23 04:31:11 70° 121° (ESE) 04:36:00 436.795
PHONESAT 2.4 05 Dec 04:29:30 04:32:18 83° 158° (SSE) 04:35:03 2401.200-2431.200
BRITE-PL 05 Dec 04:30:06 04:34:34 79° 258° (WSW) 04:38:45 437.365/2234.400
DOVE 4 05 Dec 04:30:36 04:32:25 12° 87° (E) 04:34:15 437.250
Cosmos 2491 05 Dec 04:34:45 04:40:18 19° 100° (E) 04:45:53 435.465 / 435.565
BEESAT 3 05 Dec 05:10:01 05:12:52 19° 232° (SW) 05:15:43 437.485
STRAND 1 05 Dec 05:10:52 05:15:36 39° 109° (ESE) 05:20:25 437.568
NOAA 18 05 Dec 05:15:23 05:20:28 36° 81° (E) 05:25:30 137.9125
CUTE-I 05 Dec 05:16:11 05:21:35 62° 79° (ENE) 05:26:54 437.470
RS-15 05 Dec 05:20:30 05:30:30 36° 74° (ENE) 05:40:07 29.354- 29.394
LilacSat-2 05 Dec 05:22:51 05:26:50 85° 257° (WSW) 05:30:45 437.200
HORYU 2 05 Dec 05:30:36 05:34:05 22° 248° (WSW) 05:37:34 437.375
HO-68 05 Dec 05:34:37 05:39:01 17° 88° (E) 05:43:21 435.675
BEESAT 2 05 Dec 05:36:14 05:39:22 22° 233° (SW) 05:42:29 435.950
Cubesat XI-IV 05 Dec 05:41:44 05:47:10 77° 255° (WSW) 05:52:34 437.490
NOAA 15 05 Dec 05:43:07 05:48:26 66° 254° (WSW) 05:53:39 137.62
AIST 1 05 Dec 05:49:55 05:54:04 44° 100° (E) 05:58:09
GOMX 1 05 Dec 05:50:46 05:54:11 24° 250° (WSW) 05:57:33 467.674
CINEMA 3 05 Dec 05:55:37 05:59:31 29° 83° (E) 06:03:31 145.822/145.860
Cosmos 2504 05 Dec 06:01:53 06:09:09 59° 99° (E) 06:16:45 435.465 / 435.565
YUBILEINY 05 Dec 06:05:10 06:13:48 64° 272° (W) 06:22:21 435.215
PHONESAT 2.4 05 Dec 06:05:52 06:07:16 13° 324° (NW) 06:08:37 2401.200-2431.200
DOVE 4 05 Dec 06:06:17 06:10:18 42° 254° (WSW) 06:14:22 437.250
SO-50 05 Dec 06:09:41 06:11:04 11° 287° (WNW) 06:12:27 436.795
AIST 2 05 Dec 06:15:28 06:18:30 20° 70° (ENE) 06:21:32 435.215
CUBEBUG 2 05 Dec 06:22:33 06:25:00 14° 87° (E) 06:27:27 437.445
CUTE 1.7 + AOD 2 05 Dec 06:23:13 06:27:13 35° 83° (E) 06:31:10 437.475
Cosmos 2491 05 Dec 06:27:17 06:36:01 77° 263° (W) 06:44:57 435.465 / 435.565
CANX-2 05 Dec 06:40:42 06:45:04 70° 80° (E) 06:49:21 2200.000
STRAND 1 05 Dec 06:51:06 06:54:52 21° 275° (W) 06:58:41 437.568
AAUSAT CUBESAT 2 05 Dec 06:52:42 06:56:13 25° 84° (E) 06:59:40 437.432
NOAA 18 05 Dec 06:56:22 07:00:54 26° 247° (WSW) 07:05:23 137.9125
CUTE-I 05 Dec 06:57:58 07:01:02 15° 244° (WSW) 07:04:06 437.470
PRISM 05 Dec 07:03:54 07:07:43 35° 108° (ESE) 07:11:35 437.425
UWE-3 05 Dec 07:06:11 07:10:09 28° 84° (E) 07:14:08 435.000/436.395/437.385
SEEDS 05 Dec 07:08:33 07:12:53 85° 78° (ENE) 07:17:07 437.485
HO-68 05 Dec 07:20:05 07:27:17 75° 253° (WSW) 07:34:25 435.675
COMPASS 1 05 Dec 07:21:10 07:25:27 78° 78° (ENE) 07:29:38 437.405
CUSAT 1 05 Dec 07:24:36 07:30:16 29° 95° (E) 07:36:42 437.405
AIST 1 05 Dec 07:29:43 07:31:09 11° 265° (W) 07:32:34
RS-15 05 Dec 07:31:06 07:42:17 58° 235° (SW) 07:53:08 29.354- 29.394
CINEMA 3 05 Dec 07:33:05 07:36:28 22° 250° (WSW) 07:39:55 145.822/145.860
TIGRISAT 05 Dec 07:47:07 07:50:16 20° 112° (ESE) 07:53:26 435.000
ANTELSAT 05 Dec 07:48:05 07:51:24 22° 111° (ESE) 07:54:45 437.575/2403.000
ZACube-1 05 Dec 07:49:27 07:53:56 53° 80° (E) 07:58:25 437.345
AIST 2 05 Dec 07:53:00 07:56:44 31° 235° (SW) 08:00:29 435.215
Cosmos 2504 05 Dec 07:56:40 08:01:54 21° 264° (W) 08:07:19 435.465 / 435.565
CUBEBUG 2 05 Dec 07:57:22 08:01:46 47° 254° (WSW) 08:06:15 437.445
FUNcube-1 05 Dec 07:57:46 08:02:18 61° 80° (E) 08:06:50 145.935
CUTE 1.7 + AOD 2 05 Dec 07:59:55 08:02:43 17° 248° (WSW) 08:05:30 437.475
DANDE 05 Dec 08:00:44 08:04:16 16° 101° (E) 08:08:16 436.750
DELFI C3 05 Dec 08:01:20 08:04:14 19° 86° (E) 08:07:06 145.870
JAS-2 05 Dec 08:05:30 08:08:16 13° 124° (SE) 08:11:10 435.910
AAUSAT CUBESAT 2 05 Dec 08:28:15 08:31:31 22° 250° (WSW) 08:34:44 437.432
Oscar 11 05 Dec 08:30:14 08:34:36 58° 255° (WSW) 08:38:54 145.826/435.025
Cosmos 2491 05 Dec 08:30:55 08:34:23 13° 243° (WSW) 08:37:54 435.465 / 435.565
PRISM 05 Dec 08:40:35 08:43:06 15° 274° (W) 08:45:37 437.425
UWE-3 05 Dec 08:42:45 08:46:26 24° 250° (WSW) 08:50:08 435.000/436.395/437.385
POPSAT HIP 1 05 Dec 08:50:50 08:51:43 11° 115° (ESE) 08:52:36 437.405
UNISAT 6 05 Dec 08:52:02 08:56:16 62° 281° (W) 09:00:36 437.425
CUSAT 1 05 Dec 09:05:11 09:11:42 49° 255° (WSW) 09:19:21 437.405
HO-68 05 Dec 09:11:13 09:13:45 12° 235° (SW) 09:16:18 435.675
TIGRISAT 05 Dec 09:23:02 09:26:43 28° 277° (W) 09:30:29 435.000
ANTELSAT 05 Dec 09:24:21 09:27:57 26° 276° (W) 09:31:36 437.575/2403.000
HUMSAT D 05 Dec 09:26:45 09:31:07 72° 256° (WSW) 09:35:26 437.325/437.525
ZACube-1 05 Dec 09:27:32 09:29:44 13° 246° (WSW) 09:31:55 437.345
BUGSAT 1 05 Dec 09:35:04 09:35:27 10° 115° (ESE) 09:35:49 437.445
DELFI C3 05 Dec 09:35:38 09:39:00 26° 251° (WSW) 09:42:19 145.870
FUNcube-1 05 Dec 09:36:22 09:37:59 12° 245° (WSW) 09:39:35 145.935
PCSat 05 Dec 09:39:24 09:43:56 28° 73° (ENE) 09:48:29 145.827
DANDE 05 Dec 09:40:17 09:45:46 66° 258° (WSW) 09:53:02 436.750
NANOSAT C BR1 05 Dec 09:42:44 09:46:42 42° 107° (ESE) 09:50:44 145.865
JAS-2 05 Dec 09:45:40 09:51:55 82° 106° (ESE) 09:59:07 435.910
QB50P2 05 Dec 09:47:25 09:51:33 57° 105° (ESE) 09:55:45 145.880/145.840
POLYITAN 1 05 Dec 09:48:00 09:52:07 54° 106° (ESE) 09:56:17 437.675
RS-15 05 Dec 09:50:53 09:57:40 17° 208° (SSW) 10:04:24 29.354- 29.394
JUGNU 05 Dec 09:59:18 10:01:32 12° 13° (NNE) 10:03:48 437.505
QB50P1 05 Dec 10:01:17 10:05:29 79° 104° (ESE) 10:09:45 145.935-145.965
DUCHIFAT 1 05 Dec 10:05:14 10:09:24 74° 104° (ESE) 10:13:38 145.980
AO-85 05 Dec 10:08:45 10:14:03 59° 122° (ESE) 10:19:22 145.980
SPROUT 05 Dec 10:18:33 10:20:03 12° 88° (E) 10:21:32 437.525
POPSAT HIP 1 05 Dec 10:22:47 10:26:55 57° 281° (W) 10:31:08 437.405
ESTCUBE 1 05 Dec 10:24:21 10:28:54 61° 79° (E) 10:33:21 437.505/2401.250
AISAT 05 Dec 10:35:21 10:39:19 32° 82° (E) 10:43:15 437.250
GONETS M04 05 Dec 10:42:00 10:50:44 56° 101° (E) 10:59:18
Cosmos 2499 05 Dec 10:56:49 11:04:16 73° 97° (E) 11:12:14 435.465 / 435.565
CUBEBUG 1 05 Dec 11:03:39 11:08:03 78° 258° (WSW) 11:12:22 437.445
BUGSAT 1 05 Dec 11:06:19 11:10:17 54° 280° (W) 11:14:19 437.445
Gurwin Techsat 1B 05 Dec 11:11:36 11:15:07 18° 115° (ESE) 11:18:38 435.225
50 SAT 05 Dec 11:11:37 11:15:16 75° 78° (ENE) 11:18:50 437.505
VELOX 1 05 Dec 11:11:57 11:16:26 83° 76° (ENE) 11:20:50 145.980
NANOSAT C BR1 05 Dec 11:20:40 11:22:36 13° 273° (W) 11:24:33 145.865
Oscar 19 05 Dec 11:21:11 11:26:07 44° 109° (ESE) 11:31:05 437.125/150
PCSat 05 Dec 11:22:13 11:27:08 35° 237° (WSW) 11:32:07 145.827
DX 1 05 Dec 11:28:23 11:32:45 65° 79° (E) 11:37:03 434.975-435.025
JAS-2 05 Dec 11:34:56 11:37:55 13° 266° (W) 11:41:04 435.910
UKube-1 05 Dec 11:37:19 11:41:39 60° 79° (E) 11:45:55 .
TISAT 1 05 Dec 11:42:35 11:45:19 17° 86° (E) 11:48:01 437.305
JUGNU 05 Dec 11:46:00 11:49:48 18° 3° (N) 11:53:36 437.505
AO-85 05 Dec 11:50:43 11:54:03 17° 287° (WNW) 11:57:24 145.980
SPROUT 05 Dec 11:52:01 11:56:12 49° 254° (WSW) 12:00:21 437.525
ESTCUBE 1 05 Dec 12:03:38 12:05:06 11° 244° (WSW) 12:06:34 437.505/2401.250
AISAT 05 Dec 12:12:20 12:15:31 20° 248° (WSW) 12:18:42 437.250
RS-15 05 Dec 12:13:10 12:16:57 12° 169° (SSE) 12:20:44 29.354- 29.394
GONETS M04 05 Dec 12:39:49 12:46:55 28° 263° (W) 12:53:58
SWISSCUBE 05 Dec 12:46:35 12:50:04 19° 85° (E) 12:53:30 437.505
Gurwin Techsat 1B 05 Dec 12:49:25 12:54:35 51° 280° (W) 12:59:50 435.225
BEESAT 05 Dec 12:50:45 12:54:12 19° 85° (E) 12:57:35 436.000
Cosmos 2499 05 Dec 12:52:05 12:56:36 17° 263° (W) 13:01:17 435.465 / 435.565
AO-7 05 Dec 12:53:04 13:00:31 37° 117° (ESE) 13:07:57 29.400- 29.500
AUBIESAT-1 05 Dec 12:57:00 12:58:15 12° 80° (E) 12:59:30 437.475
Oscar 19 05 Dec 13:01:56 13:05:35 19° 274° (W) 13:09:15 437.125/150
M-CUBED/EXP-1 PRIME 05 Dec 13:07:22 13:09:58 21° 78° (ENE) 13:12:38 437.505
UKube-1 05 Dec 13:16:05 13:17:07 11° 244° (WSW) 13:18:07 .
ITUPSAT 1 05 Dec 13:16:59 13:21:29 36° 82° (E) 13:25:55 437.325
TISAT 1 05 Dec 13:17:09 13:20:59 33° 252° (WSW) 13:24:48 437.305
SRMSAT 05 Dec 13:23:22 13:26:58 16° 8° (N) 13:30:35 437.500
ITAMSAT 1 05 Dec 13:26:27 13:31:39 81° 104° (ESE) 13:36:55 435.822/435.867
BEESAT 3 05 Dec 13:28:35 13:32:28 89° 120° (ESE) 13:36:20 437.485
JUGNU 05 Dec 13:34:33 13:38:05 16° 353° (N) 13:41:38 437.505
BEESAT 2 05 Dec 13:55:57 13:59:53 78° 119° (ESE) 14:03:46 435.950
MOZHAYETS 4 05 Dec 14:03:24 14:07:23 27° 84° (E) 14:11:18
SWISSCUBE 05 Dec 14:23:26 14:27:55 37° 251° (WSW) 14:32:21 437.505
RS-15 05 Dec 14:24:41 14:34:19 34° 135° (SE) 14:44:02 29.354- 29.394
BEESAT 05 Dec 14:27:33 14:32:03 38° 251° (WSW) 14:36:28 436.000
AUBIESAT-1 05 Dec 14:29:41 14:32:45 31° 249° (WSW) 14:35:53 437.475
KKS-1 05 Dec 14:39:23 14:43:07 25° 84° (E) 14:46:48 437.445
M-CUBED/EXP-1 PRIME 05 Dec 14:42:06 14:44:20 17° 246° (WSW) 14:46:38 437.505
AO-7 05 Dec 14:45:05 14:53:00 46° 281° (W) 15:01:00 29.400- 29.500
STARS 05 Dec 14:48:40 14:50:57 14° 87° (E) 14:53:13 437.465
HORYU 2 05 Dec 14:49:13 14:52:20 19° 113° (ESE) 14:55:29 437.375
ITUPSAT 1 05 Dec 14:55:24 14:59:01 21° 247° (WSW) 15:02:37 437.325
O/OREOS (USA 219) 05 Dec 15:02:59 15:07:30 89° 251° (WSW) 15:12:07 437.305
SRMSAT 05 Dec 15:11:26 15:15:26 18° 358° (N) 15:19:26 437.500
ISS 05 Dec 15:13:04 15:16:23 76° 222° (SW) 15:19:43 145.825
GOMX 1 05 Dec 15:17:28 15:21:15 21° 111° (ESE) 15:24:54 467.674
NOAA 15 05 Dec 15:22:31 15:25:45 16° 116° (ESE) 15:29:00 137.62
Cubesat XI-IV 05 Dec 15:23:27 15:26:15 15° 117° (ESE) 15:29:04 437.490
DOVE 4 05 Dec 15:34:29 15:35:19 10° 114° (ESE) 15:36:08 437.250
BRITE-PL 05 Dec 15:35:52 15:41:32 82° 103° (ESE) 15:46:58 437.365/2234.400
MOZHAYETS 4 05 Dec 15:40:31 15:44:24 26° 250° (WSW) 15:48:14
CUBESAT XI-V 05 Dec 15:40:47 15:45:14 41° 82° (E) 15:49:37 437.345
LilacSat-2 05 Dec 16:01:44 16:05:00 27° 108° (ESE) 16:08:19 437.200
KKS-1 05 Dec 16:15:53 16:19:33 25° 249° (WSW) 16:23:10 437.445
AIST 2 05 Dec 16:16:49 16:20:51 58° 121° (ESE) 16:24:51 435.215
STARS 05 Dec 16:23:15 16:27:28 44° 253° (WSW) 16:31:40 437.465
HORYU 2 05 Dec 16:24:34 16:28:35 33° 278° (W) 16:32:40 437.375
CUTE-I 05 Dec 16:34:37 16:39:56 73° 106° (ESE) 16:45:19 437.470
RS-15 05 Dec 16:36:35 16:47:23 68° 293° (WNW) 16:58:31 29.354- 29.394
NOAA 18 05 Dec 16:38:18 16:43:35 50° 108° (ESE) 16:48:54 137.9125
Cosmos 2491 05 Dec 16:42:02 16:50:33 47° 103° (ESE) 16:58:57 435.465 / 435.565
ISS 05 Dec 16:52:08 16:53:22 12° 205° (SSW) 16:54:36 145.825
GOMX 1 05 Dec 16:54:13 16:59:04 38° 278° (W) 17:03:41 467.674
CINEMA 3 05 Dec 16:55:10 16:58:00 18° 111° (ESE) 17:00:49 145.822/145.860
NOAA 15 05 Dec 16:59:45 17:04:59 57° 281° (W) 17:10:17 137.62
Cubesat XI-IV 05 Dec 17:00:25 17:05:42 65° 282° (WNW) 17:11:04 437.490
SRMSAT 05 Dec 17:01:08 17:03:53 13° 348° (NNW) 17:06:38 437.500
YUBILEINY 05 Dec 17:06:23 17:13:46 31° 95° (E) 17:21:10 435.215
DOVE 4 05 Dec 17:07:45 17:12:30 67° 281° (W) 17:17:02 437.250
CUTE 1.7 + AOD 2 05 Dec 17:13:24 17:16:16 18° 112° (ESE) 17:19:08 437.475
BRITE-PL 05 Dec 17:19:05 17:20:23 11° 270° (W) 17:21:40 437.365/2234.400
CUBESAT XI-V 05 Dec 17:19:12 17:22:14 17° 247° (WSW) 17:25:14 437.345
STRAND 1 05 Dec 17:25:38 17:29:06 18° 86° (E) 17:32:33 437.568
CANX-2 05 Dec 17:30:09 17:33:57 32° 108° (ESE) 17:37:50 2200.000
LilacSat-2 05 Dec 17:36:53 17:39:18 16° 274° (W) 17:41:44 437.200
AAUSAT CUBESAT 2 05 Dec 17:41:23 17:42:57 12° 114° (ESE) 17:44:32 437.432
HO-68 05 Dec 17:44:28 17:51:30 60° 110° (ESE) 17:58:36 435.675
SEEDS 05 Dec 17:56:44 18:00:40 36° 107° (ESE) 18:04:38 437.485
UWE-3 05 Dec 18:01:29 18:03:44 14° 113° (ESE) 18:06:00 435.000/436.395/437.385
CUSAT 1 05 Dec 18:04:26 18:08:18 16° 118° (ESE) 18:11:45 437.405
COMPASS 1 05 Dec 18:08:28 18:12:16 33° 108° (ESE) 18:16:06 437.405
AIST 1 05 Dec 18:15:42 18:19:34 31° 89° (E) 18:23:27
CUTE-I 05 Dec 18:18:51 18:20:27 11° 271° (W) 18:22:03 437.470
NOAA 18 05 Dec 18:20:49 18:24:28 18° 274° (W) 18:28:08 137.9125
CINEMA 3 05 Dec 18:31:03 18:34:54 32° 278° (W) 18:38:42 145.822/145.860
PCSat 05 Dec 18:31:31 18:34:03 13° 133° (SE) 18:36:34 145.827
Cosmos 2504 05 Dec 18:36:13 18:43:44 55° 88° (E) 18:50:54 435.465 / 435.565
SO-50 05 Dec 18:37:32 18:41:49 46° 65° (ENE) 18:46:13 436.795
Cosmos 2491 05 Dec 18:39:22 18:47:01 34° 265° (W) 18:54:37 435.465 / 435.565
DANDE 05 Dec 18:42:05 18:46:46 16° 118° (ESE) 18:51:07 436.750
ZACube-1 05 Dec 18:42:31 18:45:59 26° 110° (ESE) 18:49:30 437.345
CUTE 1.7 + AOD 2 05 Dec 18:47:52 18:51:46 34° 277° (W) 18:55:45 437.475
FUNcube-1 05 Dec 18:50:22 18:53:59 29° 109° (ESE) 18:57:40 145.935
CUBEBUG 2 05 Dec 18:51:58 18:56:08 85° 280° (W) 19:00:23 437.445
RS-15 05 Dec 18:55:59 18:57:40 10° 277° (W) 18:59:22 29.354- 29.394
YUBILEINY 05 Dec 19:01:35 19:10:05 51° 258° (WSW) 19:18:40 435.215
STRAND 1 05 Dec 19:03:28 19:08:27 46° 252° (WSW) 19:13:23 437.568
CANX-2 05 Dec 19:06:52 19:09:50 18° 274° (W) 19:12:51 2200.000
AAUSAT CUBESAT 2 05 Dec 19:13:50 19:17:55 50° 279° (W) 19:22:05 437.432
Oscar 11 05 Dec 19:21:08 19:25:27 68° 104° (ESE) 19:29:50 145.826/435.025
SEEDS 05 Dec 19:33:53 19:36:26 15° 273° (W) 19:39:02 437.485
HO-68 05 Dec 19:34:12 19:39:33 22° 274° (W) 19:44:58 435.675
UWE-3 05 Dec 19:35:54 19:39:48 39° 278° (W) 19:43:48 435.000/436.395/437.385
CUSAT 1 05 Dec 19:44:24 19:51:21 73° 274° (W) 19:56:39 437.405
COMPASS 1 05 Dec 19:45:03 19:47:50 17° 274° (W) 19:50:40 437.405
AIST 1 05 Dec 19:54:14 19:57:11 18° 255° (WSW) 20:00:10
PCSat 05 Dec 20:12:40 20:18:10 87° 300° (WNW) 20:23:34 145.827
HUMSAT D 05 Dec 20:14:20 20:18:20 48° 106° (ESE) 20:22:27 437.325/437.525
DELFI C3 05 Dec 20:16:48 20:20:51 74° 281° (WNW) 20:24:57 145.870
ZACube-1 05 Dec 20:19:00 20:22:11 21° 275° (W) 20:25:28 437.345
SO-50 05 Dec 20:19:27 20:22:32 18° 228° (SW) 20:25:41 436.795
DANDE 05 Dec 20:22:30 20:30:52 86° 100° (E) 20:37:49 436.750
PRISM 05 Dec 20:23:18 20:27:28 87° 257° (WSW) 20:31:33 437.425
FUNcube-1 05 Dec 20:27:16 20:30:13 19° 274° (W) 20:33:14 145.935
Cosmos 2504 05 Dec 20:31:28 20:37:23 24° 253° (WSW) 20:43:07 435.465 / 435.565
UNISAT 6 05 Dec 20:46:46 20:51:02 35° 82° (E) 20:55:18 437.425
JAS-2 05 Dec 21:00:48 21:05:29 17° 92° (E) 21:10:00 435.910
TIGRISAT 05 Dec 21:16:36 21:21:16 72° 78° (ENE) 21:25:56 435.000
ANTELSAT 05 Dec 21:17:56 21:22:37 79° 78° (ENE) 21:27:18 437.575/2403.000
ESTCUBE 1 05 Dec 21:20:27 21:24:39 37° 108° (ESE) 21:28:54 437.505/2401.250
AISAT 05 Dec 21:29:57 21:33:11 20° 112° (ESE) 21:36:26 437.250
QB50P2 05 Dec 21:37:32 21:39:18 12° 88° (E) 21:41:04 145.880/145.840
POLYITAN 1 05 Dec 21:38:18 21:39:49 12° 88° (E) 21:41:18 437.675
ISS 05 Dec 21:43:53 21:46:48 28° 145° (SE) 21:49:42 145.825
50 SAT 05 Dec 21:44:23 21:46:56 18° 110° (ESE) 21:49:30 437.505
QB50P1 05 Dec 21:50:22 21:53:08 17° 86° (E) 21:55:52 145.935-145.965
HUMSAT D 05 Dec 21:52:57 21:54:12 11° 271° (W) 21:55:28 437.325/437.525
DUCHIFAT 1 05 Dec 21:53:51 21:56:22 15° 86° (E) 21:58:52 145.980
CUBEBUG 1 05 Dec 21:55:53 22:00:12 55° 105° (ESE) 22:04:33 437.445
VELOX 1 05 Dec 22:05:39 22:09:56 47° 107° (ESE) 22:14:15 145.980
DANDE 05 Dec 22:07:43 22:12:15 16° 259° (W) 22:16:25 436.750
POPSAT HIP 1 05 Dec 22:11:01 22:14:45 28° 83° (E) 22:18:28 437.405
PHONESAT 2.4 05 Dec 22:20:12 22:22:19 20° 33° (NNE) 22:24:28 2401.200-2431.200
DX 1 05 Dec 22:20:33 22:24:34 36° 108° (ESE) 22:28:37 434.975-435.025
UNISAT 6 05 Dec 22:24:06 22:27:28 20° 249° (WSW) 22:30:50 437.425
UKube-1 05 Dec 22:28:34 22:32:26 32° 109° (ESE) 22:36:21 .
SPROUT 05 Dec 22:41:34 22:45:50 79° 102° (ESE) 22:50:09 437.525
JAS-2 05 Dec 22:43:17 22:51:15 84° 254° (WSW) 22:58:43 435.910
BUGSAT 1 05 Dec 22:51:30 22:55:00 26° 83° (E) 22:58:27 437.445
TIGRISAT 05 Dec 22:56:44 22:57:18 10° 244° (WSW) 22:57:52 435.000
